Regional Weather Roundup
Issued by NWS

Home | Current Version | Previous Version | Text Only | Print | Product List | Glossary Off
Versions: 1 2 3 4 5 6 7 8 9 10 11 12 13 14 15 16 17 18 19 20 21 22 23 24 25 26 27 28 29 30 31 32 33 34 35 36 37 38 39 40 41 42 43 44 45 46 47 48 49 50

000
ASUS45 KTFX 211710
RWRMT
MONTANA REGIONAL WEATHER ROUNDUP
NATIONAL WEATHER SERVICE GREAT FALLS MT
1100 AM MDT SAT APR 21 2018

NOTE: "FAIR" INDICATES FEW OR NO CLOUDS BELOW 12000 FEET WITH NO
SIGNIFICANT WEATHER AND/OR OBSTRUCTIONS TO VISIBILITY.

MTZ001>007-043-211800-
WEST OF THE DIVIDE

CITY           SKY/WX    TMP DP  RH WIND       PRES   REMARKS
KALISPELL      LGT RAIN  48  39  71 S14       30.07S
MISSOULA       CLOUDY    45  33  63 W7        30.15R
BUTTE          FAIR      54  25  32 CALM      30.11F
MULLAN PASS    MIX PCPN  33  27  78 SW10G26   30.11R WCI  25
ANACONDA         N/A     55  25  30 S10       30.09S
DEER LODGE       N/A     50  28  43 N8        30.13S
HAMILTON         N/A     52  34  50 MISG      30.14S
PLAINS           N/A     52  34  50 S3        30.12S
RONAN            N/A     50  36  57 S7        30.13S
$$

MTZ008-052>055-211800-
SOUTHWEST MONTANA

CITY           SKY/WX    TMP DP  RH WIND       PRES   REMARKS
BOZEMAN        FAIR      54  31  41 CALM      30.10F
DILLON         FAIR      57  25  29 SW17      30.11F
ENNIS          SUNNY     59  25  27 S10       30.15S
W YELLOWSTONE  FAIR      45  27  49 CALM      30.17S
THREE FORKS      N/A     55  31  40 CALM      30.07F
TWIN BRIDGES     N/A     55  25  31 SE1       30.09F
$$

MTZ009-010-012-014-046-048-049-054-211800-
EAST SLOPES AND CENTRAL MONTANA

CITY           SKY/WX    TMP DP  RH WIND       PRES   REMARKS
CUT BANK       FAIR      52  33  48 SW23G33   29.94F
GREAT FALLS    FAIR      60  29  30 SW26G36   29.99R
HELENA         FAIR      55  33  43 N5        30.06F
CHOTEAU          N/A     55  28  35 W17G24    29.98F
WHITE SULPHUR    N/A     55  25  30 S14       30.05F
$$

MTZ011-013-016-021-045-047-050-051-211800-
NORTH CENTRAL MONTANA

CITY           SKY/WX    TMP DP  RH WIND       PRES   REMARKS
HAVRE          FAIR      60  33  36 SW20G25   29.93F
LEWISTOWN      FAIR      64  25  22 SW21G26   30.00S
N BAR RANCH    FAIR      64  25  22 S20G25    30.02F
CHINOOK          N/A     59  41  51 CALM      29.93S
$$

MTZ017>020-022>027-061-062-211800-
NORTHEAST MONTANA

CITY           SKY/WX    TMP DP  RH WIND       PRES   REMARKS
GLASGOW        FAIR      61  40  45 SE15      29.99F
GLENDIVE       FAIR      57  39  51 S13       30.07F
JORDAN           N/A     64  37  36 S16       29.99F
MALTA          SUNNY     64  41  42 S18       29.92F
SIDNEY         FAIR      57  39  51 S12       30.06F
WOLF POINT     FAIR      63  40  42 S12       30.02F
PLENTYWOOD       N/A     54  43  66 MISG      30.04F
POPLAR           N/A     59  37  44 S8        30.03F
SCOBEY           N/A     55  37  50 SE3       29.99
$$

MTZ028>42-056>058-211800-
SOUTHCENTRAL AND SOUTHEAST MONTANA

CITY           SKY/WX    TMP DP  RH WIND       PRES   REMARKS
BAKER          FAIR      54  39  57 S21G28    30.11F
BILLINGS       FAIR      58  36  43 SW12      30.05F
LIVINGSTON     FAIR      62  29  28 SW22G29   30.05F
MILES CITY     FAIR      58  41  53 S6        30.05F
BIG TIMBER     SUNNY     63  28  27 W22G28    30.05F
EKALAKA          N/A     52  36  54 SE15      30.07F
FORSYTH          N/A     63  37  39 SE6       30.03F
LAUREL           N/A     61  36  39 SW13      30.05F
$$

REGIONAL REPORTS...DAKOTAS

CITY           SKY/WX    TMP DP  RH WIND       PRES   REMARKS
WILLISTON      FAIR      59  39  47 S15G21    30.07F
MINOT          FAIR      55  40  56 S20       30.16F
DICKINSON      FAIR      54  39  57 S21       30.13F
BEACH          FAIR      55  37  50 S18G25    30.13R
CROSBY         FAIR      54  43  66 S17G24    30.07S
TIOGA          FAIR      54  46  76 SW15G21   30.09F
WATFORD CITY   FAIR      57  39  51 S16       30.08F
BISMARCK       FAIR      59  35  40 SW21G30   30.23F
GRAND FORKS    FAIR      50  44  80 S12       30.32F
FARGO          FAIR      54  41  61 S12       30.34F
BUFFALO SD       N/A     54  35  48 S15G22    30.09
RAPID CITY     CLOUDY    45  37  73 S14       30.21S
$$

REGIONAL REPORTS...WYOMING/IDAHO/WASHINGTON

CITY           SKY/WX    TMP DP  RH WIND       PRES   REMARKS
GILLETTE       FAIR      48  36  63 SE16      30.12S
SHERIDAN       FAIR      57  39  51 VRB3      30.06F
BUFFALO WY     FAIR      55  37  50 SE12      30.10S
CODY           FAIR      58  29  33 VRB5      30.09F
YELLOWSTONE LA   N/A     34  23  64 CALM      30.24S
IDAHO FALLS    FAIR      54  29  38 SW15      30.19S
SALMON         FAIR      49  29  46 CALM      30.17F
BOISE          PTSUNNY   60  34  37 NW8       30.19R
SPOKANE        FAIR      52  28  39 SW26G35   30.14S
$$

REGIONAL REPORTS...ALBERTA

CITY           SKY/WX    TMP DP  RH WIND       PRES   REMARKS
CALGARY        MOSUNNY   55  27  33 SW9       29.70F
CARDSTON         N/A     54  32  43 SW13G18     N/A
EDMONTON       PTSUNNY   46  28  49 N6        29.70F
FORT MCMURRAY  MOSUNNY   54  30  40 E9        29.80F
HIGH LEVEL     CLOUDY    45  25  45 SE6       29.81F
LETHBRIDGE     MOSUNNY   57  34  41 S20G33    29.84F
LLOYDMINSTER   CLOUDY    46  39  76 E12G18    29.75F
MEDICINE HAT   CLOUDY    55  34  44 S20       29.84S
ONEFOUR          N/A     52  34  50 S5          N/A
PEACE RIVER    CLOUDY    41  28  60 SW5       29.74S
PINCHER CREEK  SUNNY     50  34  53 W28G41    29.86S
WATERTON GATE    N/A     48  30  49 SW26G38     N/A
$$

REGIONAL REPORTS...SASKATCHEWAN

CITY           SKY/WX    TMP DP  RH WIND       PRES   REMARKS
CORONACH         N/A     57  39  51 S14         N/A
CYPRESS HILLS    N/A     48  30  49 SW8         N/A
ESTEVAN        MOSUNNY   54  39  58 S20       30.07F
MOOSE JAW        N/A     64  34  32 S16         N/A
PRINCE ALBERT  CLOUDY    41  34  75 E7        29.92F
REGINA         PTSUNNY   54  45  71 SE17      30.00S
ROCKGLEN         N/A     57  39  51 S17         N/A
SASKATOON      CLOUDY    57  36  44 S10       29.88F
SWIFT CURRENT  SUNNY     61  39  44 S20G28    29.87F
VAL MARIE        N/A     61  39  44 S20         N/A
$$



USA.gov is the U.S. government's official web portal to all federal, state and local government web resources and services.